Tulsa, OK

12:21 AM CDT on August 24, 2017 (GMT -0500)
Tulsa International

Weather History for KTUL - June, 2013

Change the Weather History Date:

Thursday, June 27, 2013

  Actual Average Record
Temperature  
Mean Temperature 89 °F 81 °F  
Max Temperature 100 °F 91 °F 106 °F (2011)
Min Temperature 78 °F 71 °F 53 °F (1968)
Cooling Degree Days 24 16  
Month to date cooling degree days 386 331  
Year to date cooling degree days 578 565  
Since 1 June cooling degree days 386 331  
Growing Degree Days 38 (Base 50)    
Moisture  
Dew Point 72 °F    
Average Humidity 62    
Maximum Humidity 79    
Minimum Humidity 45    
Precipitation  
Precipitation 0.00 in 0.13 in 2.62 in (2007)
Month to date precipitation 1.69 4.32  
Year to date precipitation 15.57 20.82  
Sea Level Pressure  
Sea Level Pressure 29.87 in    
Wind  
Wind Speed 10 mph (South)    
Max Wind Speed 27 mph    
Max Gust Speed 41 mph    
Visibility 10 miles    
Events      
T = Trace of Precipitation, MM = Missing Value Source: NWS Daily Summary

Daily Weather History Graph

Daily Weather History Graph

Search for Another Location

Airport or City:

Trip Planner

Search our weather history database for the weather conditions in past years. The results will help you decide how hot, cold, wet, or windy it might be!

Date:

Astronomy

Jun. 27, 2013 Rise Set
Actual Time 6:08 AM CDT 8:44 PM CDT
Civil Twilight 5:38 AM CDT 9:15 PM CDT
Nautical Twilight 5:00 AM CDT 9:52 PM CDT
Astronomical Twilight 4:18 AM CDT 10:34 PM CDT
Moon 11:53 PM CDT (6/27) 11:01 AM CDT (6/27)
Length of Visible Light 15h 37m
Length of Day
14h 36m
Waning Gibbous, 76% of the Moon is Illuminated
Jun 27
Waning Gibbous
Jun 29
Last Quarter
Jul 8
New
Jul 15
First Quarter
Jul 22
Full

Hourly Weather History & Observations

Time (CDT) Temp. Heat Index Dew Point Humidity Pressure Visibility Wind Dir Wind Speed Gust Speed Precip Events Conditions
12:53 AM 84.0 °F 91.2 °F 73.9 °F 72% 29.88 in 9.0 mi SSE 4.6 mph - N/A   Clear
1:53 AM 82.9 °F 89.4 °F 73.9 °F 74% 29.88 in 9.0 mi SSE 6.9 mph - N/A   Clear
2:53 AM 82.0 °F 87.9 °F 73.9 °F 76% 29.87 in 9.0 mi SSE 6.9 mph - N/A   Clear
3:53 AM 80.1 °F 84.2 °F 73.0 °F 79% 29.88 in 8.0 mi SSE 5.8 mph - N/A   Clear
4:53 AM 81.0 °F 85.2 °F 72.0 °F 74% 29.87 in 9.0 mi South 11.5 mph - N/A   Clear
5:53 AM 80.1 °F 83.8 °F 72.0 °F 76% 29.89 in 8.0 mi SSE 6.9 mph - N/A   Clear
6:53 AM 80.1 °F 83.8 °F 72.0 °F 76% 29.90 in 10.0 mi SSE 4.6 mph - N/A   Partly Cloudy
7:53 AM 82.0 °F 86.7 °F 72.0 °F 71% 29.90 in 10.0 mi South 8.1 mph - N/A   Partly Cloudy
8:53 AM 86.0 °F 92.2 °F 72.0 °F 63% 29.90 in 10.0 mi South 8.1 mph - N/A   Partly Cloudy
9:53 AM 89.1 °F 95.0 °F 71.1 °F 55% 29.91 in 10.0 mi SSW 9.2 mph - N/A   Partly Cloudy
10:53 AM 91.9 °F 99.5 °F 72.0 °F 52% 29.90 in 10.0 mi Variable 5.8 mph - N/A   Clear
1:53 PM 98.1 °F 108.0 °F 73.0 °F 44% 29.89 in 10.0 mi ESE 10.4 mph - N/A   Mostly Cloudy
2:53 PM 99.0 °F 110.9 °F 73.9 °F 45% 29.87 in 10.0 mi SE 9.2 mph - N/A   Mostly Cloudy
3:53 PM 99.0 °F 110.9 °F 73.9 °F 45% 29.86 in 10.0 mi South 12.7 mph - N/A   Mostly Cloudy
4:53 PM 99.0 °F 110.9 °F 73.9 °F 45% 29.85 in 10.0 mi SSE 9.2 mph - N/A   Mostly Cloudy
5:53 PM 98.1 °F 109.5 °F 73.9 °F 46% 29.81 in 10.0 mi South 13.8 mph - N/A   Mostly Cloudy
6:53 PM 97.0 °F 109.3 °F 75.0 °F 49% 29.80 in 10.0 mi SSE 15.0 mph - N/A   Mostly Cloudy
7:53 PM 95.0 °F 108.2 °F 75.9 °F 54% 29.81 in 10.0 mi South 11.5 mph - N/A   Overcast
8:53 PM 93.0 °F 105.3 °F 75.9 °F 57% 29.82 in 10.0 mi South 9.2 mph - N/A   Overcast
9:47 PM 89.6 °F 96.2 °F 71.6 °F 55% 29.92 in 10.0 mi WNW 26.5 mph 36.8 mph N/A   Overcast
9:53 PM 86.0 °F 87.6 °F 64.9 °F 49% 29.91 in 10.0 mi NW 25.3 mph 41.4 mph N/A   Overcast
9:57 PM 86.0 °F 87.6 °F 64.9 °F 49% 29.93 in 10.0 mi WNW 18.4 mph 41.4 mph N/A   Overcast
10:53 PM 84.0 °F 85.4 °F 64.0 °F 51% 29.92 in 10.0 mi West 9.2 mph - N/A   Overcast
11:53 PM 82.9 °F 83.7 °F 62.1 °F 49% 29.85 in 10.0 mi West 10.4 mph - N/A   Overcast